• In Spain
  • List of Countries
  • For 7 days
  • Water Temperature
  • Satellite Maps
  • Weather Map
  • Weather Widgets
  • user-avatar
    Login

    Hourly Weather Korçe

    Today, 22 October, Sunday

    Time Temperature Precipitation Wind Pressure Humidity
    00:00 +10°C° 0 mm 1 mps 667 mmHg 82%
    01:00 +9°C° 0 mm 1 mps 667 mmHg 81%
    02:00 +9°C° 0 mm 1 mps 667 mmHg 78%
    03:00 +9°C° 0 mm 1 mps 667 mmHg 75%
    04:00 +9°C° 0 mm 1 mps 667 mmHg 73%
    05:00 +9°C° 0 mm 1 mps 667 mmHg 69%
    06:00 +10°C° 0 mm 1 mps 667 mmHg 65%
    07:00 +10°C° 0 mm 1 mps 667 mmHg 58%
    08:00 +13°C° 0 mm 1 mps 668 mmHg 52%
    09:00 +15°C° 0 mm 2 mps 668 mmHg 46%
    10:00 +17°C° 0 mm 2 mps 669 mmHg 40%
    11:00 +18°C° 0 mm 2 mps 669 mmHg 41%
    12:00 +19°C° 0 mm 2 mps 668 mmHg 41%
    13:00 +19°C° 0 mm 3 mps 668 mmHg 42%
    14:00 +18°C° 0 mm 2 mps 668 mmHg 47%
    15:00 +18°C° 0 mm 2 mps 667 mmHg 51%
    16:00 +17°C° 0 mm 2 mps 667 mmHg 56%
    17:00 +15°C° 0 mm 2 mps 666 mmHg 62%
    18:00 +14°C° 0 mm 1 mps 666 mmHg 69%
    19:00 +12°C° 0 mm 1 mps 665 mmHg 76%
    20:00 +12°C° 0 mm 1 mps 665 mmHg 77%
    21:00 +11°C° 0 mm 1 mps 665 mmHg 78%
    22:00 +10°C° 0 mm 2 mps 665 mmHg 79%
    23:00 +10°C° 0 mm 2 mps 664 mmHg 80%

    Tomorrow, 23 October, Monday

    Time Temperature Precipitation Wind Pressure Humidity
    00:00 +10°C° 0 mm 2 mps 664 mmHg 81%
    01:00 +10°C° 0 mm 2 mps 663 mmHg 82%
    02:00 +10°C° 0.1 mm 2 mps 663 mmHg 82%
    03:00 +10°C° 0.1 mm 2 mps 663 mmHg 82%
    04:00 +10°C° 0.1 mm 2 mps 662 mmHg 82%
    05:00 +10°C° 0.2 mm 2 mps 662 mmHg 82%
    06:00 +10°C° 0.2 mm 2 mps 661 mmHg 82%
    07:00 +10°C° 0.2 mm 2 mps 661 mmHg 82%
    08:00 +12°C° 0.6 mm 2 mps 661 mmHg 79%
    09:00 +13°C° 0.6 mm 2 mps 661 mmHg 75%
    10:00 +14°C° 0.6 mm 2 mps 661 mmHg 71%
    11:00 +13°C° 1.6 mm 2 mps 660 mmHg 75%
    12:00 +12°C° 1.6 mm 2 mps 659 mmHg 79%
    13:00 +10°C° 1.6 mm 2 mps 659 mmHg 83%
    14:00 +10°C° 0.8 mm 2 mps 658 mmHg 81%
    15:00 +11°C° 0.8 mm 1 mps 658 mmHg 80%
    16:00 +10°C° 0.8 mm 1 mps 658 mmHg 79%
    17:00 +10°C° 0.5 mm 1 mps 658 mmHg 81%
    18:00 +9°C° 0.5 mm 1 mps 657 mmHg 83%
    19:00 +9°C° 0.5 mm 1 mps 657 mmHg 85%
    20:00 +8°C° 0.3 mm 1 mps 657 mmHg 85%
    21:00 +8°C° 0.3 mm 1 mps 657 mmHg 85%
    22:00 +7°C° 0.3 mm 1 mps 657 mmHg 85%
    23:00 +7°C° 0 mm 1 mps 657 mmHg 86%

    Day after tomorrow, 24 October, Tuesday

    Time Temperature Precipitation Wind Pressure Humidity
    00:00 +6°C° 0 mm 1 mps 656 mmHg 87%
    01:00 +6°C° 0 mm 1 mps 656 mmHg 88%
    02:00 +6°C° 0 mm 1 mps 656 mmHg 88%
    03:00 +6°C° 0 mm 1 mps 656 mmHg 88%
    04:00 +5°C° 0 mm 1 mps 656 mmHg 89%
    05:00 +5°C° 0 mm 2 mps 656 mmHg 87%
    06:00 +5°C° 0 mm 2 mps 656 mmHg 86%
    07:00 +5°C° 0 mm 2 mps 657 mmHg 84%
    08:00 +7°C° 0 mm 2 mps 657 mmHg 76%
    09:00 +8°C° 0 mm 2 mps 658 mmHg 68%
    10:00 +9°C° 0 mm 3 mps 658 mmHg 60%
    11:00 +10°C° 0 mm 3 mps 658 mmHg 58%
    12:00 +10°C° 0 mm 3 mps 658 mmHg 56%
    13:00 +11°C° 0 mm 3 mps 659 mmHg 54%
    14:00 +10°C° 0 mm 3 mps 658 mmHg 56%
    15:00 +10°C° 0 mm 3 mps 658 mmHg 58%
    16:00 +9°C° 0 mm 3 mps 658 mmHg 60%
    17:00 +8°C° 0 mm 3 mps 659 mmHg 65%
    18:00 +7°C° 0 mm 2 mps 659 mmHg 71%
    19:00 +6°C° 0 mm 2 mps 659 mmHg 76%
    20:00 +6°C° 0 mm 2 mps 659 mmHg 77%
    21:00 +5°C° 0 mm 2 mps 660 mmHg 79%
    22:00 +5°C° 0 mm 2 mps 660 mmHg 80%
    23:00 +5°C° 0 mm 2 mps 660 mmHg 81%

    25 October, Wednesday

    Time Temperature Precipitation Wind Pressure Humidity
    00:00 +5°C° 0 mm 2 mps 660 mmHg 81%
    01:00 +5°C° 0 mm 2 mps 661 mmHg 81%
    02:00 +5°C° 0.1 mm 2 mps 661 mmHg 81%
    03:00 +5°C° 0.1 mm 2 mps 661 mmHg 81%
    04:00 +4°C° 0.1 mm 3 mps 661 mmHg 81%
    05:00 +5°C° 0.1 mm 3 mps 662 mmHg 81%
    06:00 +5°C° 0.1 mm 3 mps 662 mmHg 81%
    07:00 +7°C° 0.1 mm 3 mps 663 mmHg 81%
    08:00 +8°C° 0 mm 3 mps 664 mmHg 75%
    09:00 +10°C° 0 mm 3 mps 665 mmHg 69%
    10:00 +11°C° 0 mm 3 mps 666 mmHg 64%
    11:00 +11°C° 0 mm 3 mps 666 mmHg 62%
    12:00 +12°C° 0 mm 3 mps 666 mmHg 61%
    13:00 +12°C° 0 mm 3 mps 667 mmHg 60%
    14:00 +12°C° 0 mm 3 mps 667 mmHg 63%
    15:00 +11°C° 0 mm 3 mps 667 mmHg 66%
    16:00 +11°C° 0 mm 3 mps 667 mmHg 69%
    17:00 +10°C° 0 mm 2 mps 668 mmHg 72%
    18:00 +9°C° 0 mm 2 mps 668 mmHg 76%
    19:00 +8°C° 0 mm 2 mps 668 mmHg 80%
    20:00 +8°C° 0 mm 2 mps 669 mmHg 81%
    21:00 +7°C° 0 mm 2 mps 669 mmHg 82%
    22:00 +7°C° 0 mm 2 mps 670 mmHg 83%
    23:00 +7°C° 0 mm 2 mps 670 mmHg 84%

    26 October, Thursday

    Time Temperature Precipitation Wind Pressure Humidity
    00:00 +6°C° 0 mm 2 mps 670 mmHg 84%
    01:00 +6°C° 0 mm 2 mps 670 mmHg 84%
    02:00 +6°C° 0 mm 2 mps 670 mmHg 84%
    03:00 +6°C° 0 mm 2 mps 670 mmHg 84%
    04:00 +5°C° 0 mm 2 mps 670 mmHg 84%
    05:00 +6°C° 0 mm 2 mps 671 mmHg 83%
    06:00 +6°C° 0 mm 2 mps 671 mmHg 81%
    07:00 +6°C° 0 mm 2 mps 671 mmHg 79%
    08:00 +9°C° 0 mm 2 mps 672 mmHg 70%
    09:00 +12°C° 0 mm 1 mps 673 mmHg 61%
    10:00 +14°C° 0 mm 1 mps 673 mmHg 51%
    11:00 +15°C° 0 mm 1 mps 673 mmHg 48%
    12:00 +16°C° 0 mm 2 mps 673 mmHg 44%
    13:00 +17°C° 0 mm 2 mps 673 mmHg 41%
    14:00 +16°C° 0 mm 2 mps 673 mmHg 45%
    15:00 +16°C° 0 mm 2 mps 672 mmHg 48%
    16:00 +15°C° 0 mm 2 mps 672 mmHg 52%
    17:00 +13°C° 0 mm 1 mps 672 mmHg 56%
    18:00 +12°C° 0 mm 1 mps 672 mmHg 59%
    19:00 +10°C° 0 mm 1 mps 672 mmHg 63%
    20:00 +10°C° 0 mm 1 mps 672 mmHg 63%
    21:00 +10°C° 0 mm 1 mps 672 mmHg 62%
    22:00 +10°C° 0 mm 1 mps 672 mmHg 62%
    23:00 +9°C° 0 mm 1 mps 671 mmHg 61%

    27 October, Friday

    Time Temperature Precipitation Wind Pressure Humidity
    00:00 +9°C° 0 mm 1 mps 671 mmHg 61%
    01:00 +9°C° 0 mm 1 mps 671 mmHg 60%
    02:00 +9°C° 0 mm 1 mps 671 mmHg 60%
    03:00 +9°C° 0 mm 1 mps 671 mmHg 60%
    04:00 +9°C° 0 mm 1 mps 670 mmHg 60%
    05:00 +9°C° 0 mm 1 mps 670 mmHg 60%
    06:00 +9°C° 0 mm 1 mps 670 mmHg 59%
    07:00 +10°C° 0 mm 1 mps 670 mmHg 59%
    08:00 +12°C° 0 mm 1 mps 671 mmHg 52%
    09:00 +15°C° 0 mm 1 mps 671 mmHg 46%
    10:00 +18°C° 0 mm 1 mps 672 mmHg 39%
    11:00 +19°C° 0 mm 1 mps 672 mmHg 38%
    12:00 +19°C° 0 mm 1 mps 671 mmHg 36%
    13:00 +19°C° 0 mm 2 mps 671 mmHg 35%
    14:00 +19°C° 0 mm 1 mps 670 mmHg 40%
    15:00 +18°C° 0 mm 1 mps 669 mmHg 44%
    16:00 +16°C° 0 mm 1 mps 669 mmHg 49%
    17:00 +14°C° 0 mm 1 mps 668 mmHg 54%
    18:00 +13°C° 0 mm 1 mps 667 mmHg 59%
    19:00 +10°C° 0 mm 0 mps 667 mmHg 65%
    20:00 +11°C° 0 mm 1 mps 666 mmHg 66%
    21:00 +10°C° 0 mm 1 mps 666 mmHg 68%
    22:00 +10°C° 0 mm 1 mps 666 mmHg 70%
    23:00 +9°C° 0 mm 1 mps 665 mmHg 71%
    Show more